User: anonymous   Login
Location: Go?cza
(50.3372°N, 19.9313°E)
Time: 13:25:36
(UTC+00:00)
Language:

Cosmos 1953 - Orbit

View from above orbital plane
View from above orbital plane
View from above satellite
View from above satellite

Ground track
Ground track

The orbit data is extracted from the following two-line orbital elements,

1 19210U 88050A   24205.96367454  .00009168  00000-0  47830-3 0  9990
2 19210  82.5131  30.2206 0015261  46.5664 313.6835 15.15716168947431
Epoch (UTC): 23 July 2024 23:07:41
Eccentricity: 0.0015261
inclination: 82.5131°
perigee height: 508 km
apogee height: 529 km
right ascension of ascending node: 30.2206°
argument of perigee: 46.5664°
revolutions per day: 15.15716168
mean anomaly at epoch: 313.6835°
orbit number at epoch: 94743

The dashed part of the orbit path shows where the satellite is in the earth's shadow,  

DLR